Martinsburg, WV

5:47 AM EDT on April 27, 2017 (GMT -0400)
Eastern W Va Regional-Shepherd

Weather History for KMRB - May, 2014

Change the Weather History Date:

Thursday, May 8, 2014

  Actual Average Record
Temperature  
Mean Temperature 68 °F 59 °F  
Max Temperature 87 °F 71 °F 95 °F (1930)
Min Temperature 48 °F 47 °F 31 °F (1974)
Degree Days  
Heating Degree Days 0 7  
Month to date heating degree days 47 62  
Since 1 July heating degree days 5337 5119  
Cooling Degree Days 3 1  
Month to date cooling degree days 3 8  
Year to date cooling degree days 10 17  
Growing Degree Days 18 (Base 50)    
Moisture  
Dew Point 52 °F    
Average Humidity 62    
Maximum Humidity 89    
Minimum Humidity 34    
Precipitation  
Precipitation 0.00 in 0.14 in 2.52 in (1960)
Month to date precipitation 0.59 1.05  
Year to date precipitation 10.17 12.69  
Sea Level Pressure  
Sea Level Pressure 30.09 in    
Wind  
Wind Speed 2 mph (NNE)    
Max Wind Speed 12 mph    
Max Gust Speed 16 mph    
Visibility 6 miles    
Events      
T = Trace of Precipitation, MM = Missing Value Source: NWS Daily Summary

Daily Weather History Graph

Daily Weather History Graph

Search for Another Location

Airport or City:

Trip Planner

Search our weather history database for the weather conditions in past years. The results will help you decide how hot, cold, wet, or windy it might be!

Date:

Astronomy

May. 08, 2014 Rise Set
Actual Time 6:05 AM EDT 8:12 PM EDT
Civil Twilight 5:35 AM EDT 8:42 PM EDT
Nautical Twilight 4:59 AM EDT 9:18 PM EDT
Astronomical Twilight 4:19 AM EDT 9:58 PM EDT
Moon 2:12 PM EDT (5/8) 2:33 AM EDT (5/8)
Length of Visible Light 15h 06m
Length of Day
14h 07m
Waxing Gibbous, 64% of the Moon is Illuminated
May 8
Waxing Gibbous
May 14
Full
May 21
Last Quarter
May 28
New
Jun 5
First Quarter

Hourly Weather History & Observations

Time (EDT) Temp. Heat Index Dew Point Humidity Pressure Visibility Wind Dir Wind Speed Gust Speed Precip Events Conditions
12:53 AM 53.1 °F - 48.9 °F 86% 30.14 in 10.0 mi East 3.5 mph - N/A   Clear
1:53 AM 52.0 °F - 48.0 °F 86% 30.12 in 7.0 mi NNE 4.6 mph - N/A   Clear
2:53 AM 52.0 °F - 48.0 °F 86% 30.11 in 6.0 mi NNW 3.5 mph - N/A   Clear
3:53 AM 51.1 °F - 48.0 °F 89% 30.11 in 4.0 mi Calm Calm - N/A   Clear
4:53 AM 50.0 °F - 46.9 °F 89% 30.11 in 2.5 mi Calm Calm - N/A   Clear
5:05 AM 48.9 °F - 46.0 °F 90% 30.11 in 3.0 mi NNW 3.5 mph - N/A   Clear
5:53 AM 50.0 °F - 46.0 °F 86% 30.12 in 3.0 mi Calm Calm - N/A   Clear
6:23 AM 48.9 °F - 46.0 °F 90% 30.13 in 2.0 mi Calm Calm - N/A   Clear
6:32 AM 48.9 °F - 46.0 °F 90% 30.13 in 1.5 mi Calm Calm - N/A   Clear
6:53 AM 50.0 °F - 46.9 °F 89% 30.14 in 1.2 mi Calm Calm - N/A   Clear
7:27 AM 52.0 °F - 48.9 °F 89% 30.15 in 2.0 mi Calm Calm - N/A   Clear
7:53 AM 53.1 °F - 48.9 °F 86% 30.15 in 3.0 mi Calm Calm - N/A   Clear
8:53 AM 57.0 °F - 51.1 °F 81% 30.15 in 4.0 mi Variable 3.5 mph - N/A   Haze
9:06 AM 59.0 °F - 51.1 °F 75% 30.16 in 5.0 mi NE 8.1 mph - N/A   Haze
9:32 AM 59.0 °F - 51.1 °F 75% 30.16 in 6.0 mi North 5.8 mph - N/A   Haze
9:53 AM 59.0 °F - 51.1 °F 75% 30.16 in 5.0 mi NNW 6.9 mph - N/A   Haze
10:30 AM 60.1 °F - 51.1 °F 72% 30.15 in 6.0 mi Calm Calm - N/A   Haze
11:53 AM 66.9 °F - 55.0 °F 66% 30.12 in 8.0 mi Variable 3.5 mph - N/A   Clear
2:53 PM 82.0 °F 82.4 °F 60.1 °F 47% 30.04 in 10.0 mi Variable 4.6 mph - N/A   Clear
3:53 PM 84.9 °F 83.7 °F 55.9 °F 37% 30.01 in 10.0 mi SSE 6.9 mph - N/A   Clear
4:53 PM 87.1 °F 85.7 °F 55.9 °F 35% 29.99 in 10.0 mi Calm Calm - N/A   Clear
5:53 PM 86.0 °F 84.7 °F 55.9 °F 36% 29.98 in 10.0 mi Variable 5.8 mph - N/A   Clear
6:53 PM 84.0 °F 83.5 °F 57.9 °F 41% 29.99 in 10.0 mi ESE 3.5 mph - N/A   Clear
7:53 PM 80.1 °F 80.7 °F 59.0 °F 48% 30.00 in 10.0 mi Calm Calm - N/A   Clear
8:53 PM 73.9 °F - 59.0 °F 59% 30.02 in 10.0 mi Calm Calm - N/A   Clear
9:53 PM 70.0 °F - 59.0 °F 68% 30.02 in 10.0 mi Calm Calm - N/A   Clear
10:53 PM 66.9 °F - 59.0 °F 76% 30.04 in 9.0 mi Calm Calm - N/A   Clear
11:53 PM 68.0 °F - 59.0 °F 73% 30.06 in 9.0 mi Calm Calm - N/A   Clear